Flag for USA

Past Weather in Boston, Massachusetts, USA — Yesterday and Last 2 Weeks

Now
71 °F

Scattered clouds.


Feels Like: 77 °F
Forecast: 73 / 62 °F
Wind: 15 mph from West

Location: Logan International Airport
Current Time: Sep 30, 2020 at 3:58:12 pm
Latest Report: Sep 30, 2020 at 2:54 pm
Visibility: 10 mi
Pressure29.63 "Hg
Humidity: 49%
Dew Point: 51 °F
Location of BostonLocation

Past Weather in Boston — Graph

°F

Boston Temperature Yesterday

Maximum temperature yesterday: 76 °F (at 1:54 pm)
Minimum temperature yesterday: 62 °F (at 4:24 am)
Average temperature yesterday: 69 °F

High & Low Weather Summary for the Past Weeks

 TemperatureHumidityPressure
High79 °F (Sep 23, 2:54 pm)100% (Sep 26, 3:54 am)30.60 "Hg (Sep 26, 3:54 am)
Low44 °F (Sep 20, 5:54 am)24% (Sep 22, 4:54 pm)29.43 "Hg (Sep 30, 7:54 am)
Average63 °F67%30.06 "Hg
* Reported Sep 15 2:54 pm — Sep 30 2:54 pm, Boston. Weather by CustomWeather, © 2020

Note: Actual official high and low records may vary slightly from our data, if they occured in-between our weather recording intervals... More about our weather records

Boston Weather History for the Previous 24 Hours

Scroll right to see more
 ConditionsComfort  
Time TempWeatherWind HumidityBarometerVisibility
2:54 pm
Wed, Sep 30
71 °FScattered clouds.15 mph49%29.63 "Hg10 mi
1:54 pm72 °FBroken clouds.26 mph52%29.61 "Hg10 mi
12:54 pm71 °FBroken clouds.22 mph63%29.59 "Hg10 mi
11:54 am68 °FBroken clouds.12 mph76%29.55 "Hg10 mi
11:07 am64 °FLight rain. Mostly cloudy.20 mph81%29.56 "Hg4 mi
9:54 am74 °FMore clouds than sun.23 mph74%29.50 "Hg10 mi
9:08 am73 °FMore clouds than sun.21 mph84%29.49 "Hg10 mi
8:54 am74 °FMostly cloudy.23 mph85%29.48 "Hg10 mi
7:54 am74 °FLight rain. Mostly cloudy.37 mph85%29.43 "Hg10 mi
6:54 am73 °FLight rain. Fog.32 mph90%29.46 "Hg6 mi
5:54 am73 °FRain. Fog.24 mph90%29.50 "Hg6 mi
4:54 am73 °FLight rain. Overcast.21 mph94%29.53 "Hg10 mi
4:24 am72 °FLight rain. Mostly cloudy.21 mph93%29.56 "Hg10 mi
3:58 am71 °FHeavy rain. Fog.17 mph93%29.58 "Hg3 mi
2:54 am72 °FLight rain. Mostly cloudy.22 mph91%29.62 "Hg9 mi
1:54 am72 °FMostly cloudy.14 mph91%29.68 "Hg10 mi
12:54 am71 °FMostly cloudy.14 mph90%29.73 "Hg10 mi
11:54 pm
Tue, Sep 29
69 °FOvercast.9 mph90%29.77 "Hg10 mi
10:54 pm69 °FOvercast.9 mph87%29.81 "Hg10 mi
10:17 pm69 °FMostly cloudy.8 mph84%29.83 "Hg10 mi
9:54 pm69 °FMostly cloudy.8 mph84%29.83 "Hg10 mi
8:54 pm69 °FPassing clouds.7 mph81%29.85 "Hg10 mi
7:54 pm70 °FPassing clouds.7 mph79%29.85 "Hg10 mi
7:29 pm70 °FPassing clouds.6 mph76%29.85 "Hg10 mi
6:54 pm72 °FPassing clouds.9 mph71%29.85 "Hg10 mi
6:25 pm72 °FBroken clouds.9 mph73%29.85 "Hg10 mi
5:54 pm73 °FPartly sunny.9 mph71%29.85 "Hg10 mi
5:14 pm74 °FMostly cloudy.9 mph69%29.85 "Hg10 mi
4:54 pm74 °FBroken clouds.9 mph69%29.85 "Hg10 mi
3:54 pm74 °FBroken clouds.12 mph69%29.86 "Hg10 mi
Weather by CustomWeather, © 2020

See weather overview